Regional Weather Roundup
Issued by NWS Green Bay, WI

Home | Current Version | Previous Version | Text Only | Print | Product List | Glossary On
Versions: 1 2 3 4 5 6 7 8 9 10 11 12 13 14 15 16 17 18 19 20 21 22 23 24 25 26 27 28 29 30 31 32 33 34 35 36 37 38 39 40 41 42 43 44 45 46 47 48 49 50
000
ASUS43 KGRB 232100
RWRGRB

NORTH-CENTRAL AND NORTHEAST WISCONSIN REGIONAL WEATHER ROUNDUP
NATIONAL WEATHER SERVICE GREEN BAY WI
300 PM CST THU NOV 23 2017

WIZ005-009-010>012-018-019-232200-
NORTH CENTRAL WISCONSIN

CITY           SKY/WX    TMP DP  RH WIND       PRES   REMARKS
IRONWOOD       SUNNY     39  22  50 S6        29.77F
MANITOWISH WTR NOT AVBL
ARBOR VITAE    NOT AVBL
EAGLE RIVER    SUNNY     38  22  52 W6        29.79F
LAND O LAKES   NOT AVBL
RHINELANDER    SUNNY     40  24  53 W6        29.81F
PHILLIPS       SUNNY     38  23  54 SW7       29.80F
ANTIGO         NOT AVBL
TOMAHAWK       NOT AVBL
MERRILL        SUNNY     41  23  48 W8        29.83S
$$

WIZ013-073-232200-
NORTHEAST WISCONSIN

CITY           SKY/WX    TMP DP  RH WIND       PRES   REMARKS
IRON MOUNTAIN  CLEAR     41  19  41 W3        29.80S
MARINETTE      CLEAR     41  21  44 W6        29.86S
$$

WIZ017-030-035>037-045-232200-
CENTRAL WISCONSIN

CITY           SKY/WX    TMP DP  RH WIND       PRES   REMARKS
MEDFORD        NOT AVBL
WAUSAU         SUNNY     40  21  46 W3        29.83S
MOSINEE        MOSUNNY   39  21  48 W6        29.85F
MARSHFIELD     SUNNY     41  20  43 W6        29.84S
WISC RAPIDS    SUNNY     42  21  43 SW6       29.86F
STEVENS POINT  NOT AVBL
WAUPACA        NOT AVBL
SHAWANO        SUNNY     44  20  38 W5        29.86R
CLINTONVILLE   NOT AVBL
WAUTOMA        SUNNY     44  20  38 W9        29.88R
$$

WIZ038-039-048-051-232200-
FOX VALLEY

CITY           SKY/WX    TMP DP  RH WIND       PRES   REMARKS
NWS GREEN BAY  SUNNY     42  23  46 W7        29.87S
APPLETON       MOSUNNY   41  16  36 SW7       29.84F
OSHKOSH        SUNNY     42  22  44 W5        29.87F
FOND DU LAC    SUNNY     43  20  39 W6        29.87F
$$

WIZ022-050-052-232200-
EAST CENTRAL WISCONSIN

CITY           SKY/WX    TMP DP  RH WIND       PRES   REMARKS
EPHRAIM        NOT AVBL
WASHINGTON ISL NOT AVBL
STURGEON BAY   CLEAR     39  21  48 SW9       29.86F
MANITOWOC      SUNNY     41  22  46 W9        29.88F
SHEBOYGAN      SUNNY     42  23  46 W6        29.88S
$$

LMZ563-521-522-541>543-232200-
LAKESHORE

STATION/POSITION TIME  TEMP    WIND        PRES    VSBY  WAVE
                       AIR SEA DIR/SP/G                  HT/PER
                 (UTC) (F)     (DEG/KT/KT) (MB)    (MI)  (FT/S)
SHEBOYGAN LKSHOR 2000   41     220/  9/ 10 1012.2F
KEWAUNEE LKSHORE 2030   42     260/  7/ 10 1010.8F
NORTHPORT PIER   2040   40     250/  3/  8 1010.8F
N MID LAKE BUOY  1950   37 47  240/ 16/ 17 1012.2S         3/ 4
SISTER BAY LKSHO 2004   44     250/ 10/ 11   N/A
MENOMINEE LKSHOR 2030   40     240/  7/  9 1010.7S
$$



USA.gov is the U.S. government's official web portal to all federal, state and local government web resources and services.